Location: Nairn
(57.5833°N, 3.8667°W)
Time: 02:21:24
(UTC+00:00)

Tiros 1 despin weight - Pass Details

Date: 27 November 2020
Orbit: 594 x 641 km, 48.2° (Epoch: 22 January)

Event Time Altitude Azimuth Distance (km) Brightness Sun altitude
Rises 17:21:26 0° 263° (W) 2,944 ? -12.5°
Reaches altitude 10° 17:24:18 10° 246° (WSW) 2,031 ? -12.8°
Maximum altitude 17:27:37 19° 201° (SSW) 1,498 ? -13.2°
Drops below altitude 10° 17:30:55 10° 155° (SSE) 2,014 ? -13.7°
Sets 17:33:45 0° 138° (SE) 2,911 ? -14.0°
